Murzzuschlag, Austria
Current Conditions -  °F | °C
As of 5:20 AM on Thursday 23 Oct 2014 (Local Time) from LOWG Reporting Station
Broken Clouds Broken Clouds  
Wind Chill: 41°   Ceiling: 8000
Heat Index: 41°   Visibility: 6mi
Dew Point: 37°   Wind: 2mph
Humidity: 87%   Direction: NA
Pressure: 29.71"   Gusts: NA
Location:  47.61°N, 15.67°E
Report Text: LOWG 230320Z VRB02KT 9999 SCT050 BKN080 05/03 Q1006 NOSIG
Loading
Personal Weather Stations






























Interactive Weather Map
Tropical Storm Tracking
New forecast layout! Learn more

10-Day Weather Forecast

Advertisements
Track Severe Weather on mobile